Location: Boursonne
(49.2024°N, 3.0468°E)
Time: 19:23:27
(UTC+00:00)

USA 308 - Pass Details

Date: 03 March 2021
Orbit: 568 x 576 km, 54.0° (Epoch: 13 April)

Event Time Altitude Azimuth Distance (km) Brightness Sun altitude
Rises 20:06:16 0° 290° (WNW) 2,778 7.8 -25.2°
Reaches altitude 10° 20:08:35 10° 296° (WNW) 1,878 6.6 -25.6°
Enters shadow 20:12:07 45° 343° (NNW) 784 3.7 -26.1°
